TimeEST,TemperatureF,Dew PointF,Humidity,Sea Level PressureIn,VisibilityMPH,Wind Direction,Wind SpeedMPH,Gust SpeedMPH,PrecipitationIn,Events,Conditions,WindDirDegrees,DateUTC
12:10 AM,32.0,30.2,93,29.86,9.0,SSW,6.9,-,N/A,,Overcast,210,2013-02-23 05:10:00
12:53 AM,32.0,28.9,88,29.88,9.0,SSW,9.2,-,N/A,,Overcast,200,2013-02-23 05:53:00
1:09 AM,32.0,28.4,87,29.85,9.0,SSW,9.2,-,N/A,,Overcast,210,2013-02-23 06:09:00
1:53 AM,32.0,28.0,85,29.88,10.0,SSW,8.1,-,N/A,,Overcast,210,2013-02-23 06:53:00
2:53 AM,32.0,26.1,79,29.87,10.0,SW,8.1,-,N/A,,Overcast,230,2013-02-23 07:53:00
3:53 AM,30.2,26.6,86,29.82,10.0,SSW,5.8,-,N/A,,Overcast,210,2013-02-23 08:53:00
4:12 AM,30.2,26.6,86,29.83,10.0,WSW,9.2,-,N/A,,Overcast,250,2013-02-23 09:12:00
4:53 AM,30.0,23.0,75,29.87,10.0,SW,10.4,-,N/A,,Overcast,230,2013-02-23 09:53:00
5:53 AM,28.9,19.9,69,29.88,10.0,WSW,9.2,-,N/A,,Overcast,240,2013-02-23 10:53:00
6:00 AM,28.4,19.4,69,29.84,10.0,SW,6.9,-,N/A,,Overcast,220,2013-02-23 11:00:00
6:53 AM,28.0,19.0,69,29.88,10.0,SW,8.1,-,N/A,,Overcast,230,2013-02-23 11:53:00
7:53 AM,28.0,19.0,69,29.89,10.0,SW,10.4,-,N/A,,Overcast,230,2013-02-23 12:53:00
8:53 AM,28.0,19.9,72,29.89,10.0,WSW,10.4,-,N/A,,Mostly Cloudy,240,2013-02-23 13:53:00
9:26 AM,28.4,21.2,74,29.86,8.0,WSW,13.8,-,N/A,,Overcast,240,2013-02-23 14:26:00
9:53 AM,28.0,21.0,75,29.89,8.0,SW,11.5,-,N/A,,Overcast,230,2013-02-23 14:53:00
10:53 AM,28.9,21.9,75,29.89,7.0,SW,9.2,-,0.00,Snow,Light Snow,220,2013-02-23 15:53:00
11:53 AM,30.0,21.0,69,29.89,8.0,SW,11.5,-,0.00,Snow,Light Snow,230,2013-02-23 16:53:00
12:53 PM,30.0,19.9,66,29.88,8.0,SW,12.7,-,0.00,,Overcast,230,2013-02-23 17:53:00
1:53 PM,30.9,19.9,64,29.87,10.0,WSW,8.1,-,N/A,,Overcast,250,2013-02-23 18:53:00
2:07 PM,30.2,19.4,64,29.83,10.0,WSW,6.9,-,N/A,,Overcast,250,2013-02-23 19:07:00
2:53 PM,30.9,18.0,59,29.87,10.0,WSW,8.1,-,N/A,,Overcast,250,2013-02-23 19:53:00
3:53 PM,30.0,19.0,64,29.87,10.0,West,10.4,-,N/A,,Overcast,270,2013-02-23 20:53:00
4:53 PM,30.0,18.0,61,29.87,10.0,WSW,6.9,-,N/A,,Overcast,250,2013-02-23 21:53:00
5:53 PM,28.9,17.1,61,29.89,10.0,West,8.1,-,N/A,,Overcast,260,2013-02-23 22:53:00
6:53 PM,28.0,18.0,66,29.91,10.0,West,8.1,-,N/A,,Overcast,270,2013-02-23 23:53:00
7:53 PM,26.1,21.0,81,29.91,6.0,West,10.4,-,0.00,Snow,Light Snow,280,2013-02-24 00:53:00
8:23 PM,26.6,21.2,80,29.88,6.0,West,8.1,-,0.00,Snow,Light Snow,260,2013-02-24 01:23:00
8:53 PM,26.1,21.0,81,29.92,6.0,WSW,8.1,-,0.00,Snow,Light Snow,250,2013-02-24 01:53:00
9:14 PM,26.6,21.2,80,29.88,8.0,WSW,6.9,-,0.00,,Overcast,240,2013-02-24 02:14:00
9:53 PM,25.0,19.9,81,29.91,9.0,WSW,5.8,-,0.00,,Overcast,250,2013-02-24 02:53:00
10:46 PM,24.8,19.4,80,29.86,10.0,West,6.9,-,N/A,,Overcast,260,2013-02-24 03:46:00
10:53 PM,24.8,19.4,80,29.86,10.0,WSW,6.9,-,N/A,,Overcast,250,2013-02-24 03:53:00
11:26 PM,24.8,19.4,80,29.86,10.0,WSW,5.8,-,N/A,,Overcast,250,2013-02-24 04:26:00
11:53 PM,24.1,19.0,81,29.89,10.0,WSW,4.6,-,N/A,,Overcast,240,2013-02-24 04:53:00